| time (UTC) | temp F | wind direction | speed MPH | gust MPH | rain 1hr in | rain 24hr in | rain mn in | humidity % | barometer mb |
| 20260504050008 | 71 | 356 | 1.0 | 7.0 | 0.00 | 0.03 | 0.00 | 75 | 1016.3 |
| 20260504044510 | 71 | 70 | 4.0 | 11.0 | 0.00 | 0.03 | 0.00 | 75 | 1016.4 |
| 20260504043010 | 71 | 50 | 4.0 | 9.0 | 0.00 | 0.03 | 0.00 | 75 | 1016.2 |
| 20260504041502 | 72 | 75 | 3.0 | 8.0 | 0.00 | 0.03 | 0.00 | 74 | 1016.4 |
| 20260504034600 | 72 | 53 | 1.0 | 5.0 | 0.00 | 0.03 | 0.03 | 71 | 1016.8 |
| 20260504033121 | 72 | 39 | 0.0 | 4.0 | 0.00 | 0.03 | 0.03 | 69 | 1016.7 |
| 20260504031600 | 72 | 29 | 2.0 | 5.0 | 0.00 | 0.03 | 0.03 | 67 | 1016.7 |
| 20260504030115 | 72 | 8 | 4.0 | 7.0 | 0.00 | 0.03 | 0.03 | 67 | 1016.6 |
| 20260504024558 | 72 | 39 | 2.0 | 7.0 | 0.00 | 0.05 | 0.03 | 67 | 1016.6 |
| 20260504023057 | 72 | 20 | 2.0 | 6.0 | 0.00 | 0.05 | 0.03 | 68 | 1016.4 |
| 20260504021557 | 72 | 16 | 3.0 | 6.0 | 0.00 | 0.05 | 0.03 | 68 | 1016.1 |
| 20260504020106 | 72 | 4 | 1.0 | 6.0 | 0.00 | 0.05 | 0.03 | 68 | 1016.1 |
| 20260504014605 | 73 | 36 | 3.0 | 6.0 | 0.00 | 0.10 | 0.03 | 68 | 1015.8 |
| 20260504013057 | 72 | 53 | 4.0 | 8.0 | 0.00 | 0.10 | 0.03 | 69 | 1015.5 |
| 20260504011556 | 73 | 27 | 2.0 | 6.0 | 0.00 | 0.10 | 0.03 | 69 | 1015.5 |
| 20260504010101 | 73 | 57 | 2.0 | 8.0 | 0.00 | 0.10 | 0.03 | 69 | 1015.2 |
| 20260504004555 | 73 | 27 | 3.0 | 8.0 | 0.00 | 0.10 | 0.03 | 68 | 1015.1 |
| 20260504003056 | 73 | 50 | 4.0 | 9.0 | 0.00 | 0.10 | 0.03 | 69 | 1015.0 |
| 20260504001559 | 73 | 13 | 3.0 | 7.0 | 0.00 | 0.10 | 0.03 | 69 | 1014.9 |
| 20260504000059 | 74 | 2 | 3.0 | 9.0 | 0.00 | 0.10 | 0.03 | 69 | 1014.6 |
| 20260503234553 | 74 | 160 | 5.0 | 11.0 | 0.00 | 0.10 | 0.03 | 67 | 1014.6 |
| 20260503233053 | 74 | 8 | 4.0 | 11.0 | 0.00 | 0.10 | 0.03 | 67 | 1014.7 |
| 20260503231551 | 75 | 314 | 4.0 | 8.0 | 0.00 | 0.10 | 0.03 | 67 | 1014.6 |
| 20260503230109 | 76 | 302 | 4.0 | 9.0 | 0.00 | 0.10 | 0.03 | 65 | 1014.6 |
| 20260503224551 | 76 | 307 | 5.0 | 14.0 | 0.00 | 0.10 | 0.03 | 64 | 1014.6 |
| 20260503223108 | 76 | 268 | 3.0 | 11.0 | 0.00 | 0.10 | 0.03 | 64 | 1014.6 |
| 20260503221553 | 77 | 359 | 4.0 | 10.0 | 0.00 | 0.10 | 0.03 | 62 | 1014.5 |
| 20260503220051 | 78 | 311 | 4.0 | 11.0 | 0.00 | 0.10 | 0.03 | 61 | 1014.5 |
| 20260503214556 | 78 | 44 | 4.0 | 10.0 | 0.00 | 0.14 | 0.03 | 61 | 1014.6 |
| 20260503213050 | 78 | 23 | 4.0 | 12.0 | 0.00 | 0.14 | 0.03 | 60 | 1014.5 |
| 20260503211548 | 79 | 23 | 4.0 | 10.0 | 0.00 | 0.14 | 0.03 | 58 | 1014.6 |
| 20260503210047 | 81 | 32 | 2.0 | 6.0 | 0.00 | 0.14 | 0.03 | 49 | 1014.7 |
| 20260503204547 | 81 | 77 | 2.0 | 8.0 | 0.00 | 0.16 | 0.03 | 50 | 1014.8 |
| 20260503203047 | 81 | 77 | 5.0 | 10.0 | 0.00 | 0.16 | 0.03 | 50 | 1014.9 |
| 20260503201549 | 81 | 94 | 2.0 | 11.0 | 0.00 | 0.16 | 0.03 | 52 | 1015.0 |
| 20260503200045 | 81 | 101 | 2.0 | 10.0 | 0.00 | 0.16 | 0.03 | 51 | 1015.3 |
| 20260503194556 | 80 | 53 | 4.0 | 10.0 | 0.00 | 0.74 | 0.03 | 55 | 1015.4 |
| 20260503193043 | 79 | 55 | 2.0 | 9.0 | 0.00 | 0.74 | 0.03 | 55 | 1015.7 |
| 20260503191541 | 79 | 27 | 4.0 | 10.0 | 0.00 | 0.74 | 0.03 | 56 | 1016.0 |
| 20260503190047 | 80 | 11 | 3.0 | 9.0 | 0.00 | 0.74 | 0.03 | 55 | 1016.2 |
| 20260503184542 | 77 | 54 | 7.0 | 13.0 | 0.00 | 0.78 | 0.03 | 59 | 1016.5 |
| 20260503183042 | 78 | 60 | 5.0 | 10.0 | 0.00 | 0.78 | 0.03 | 58 | 1016.7 |
| 20260503181556 | 78 | 32 | 5.0 | 9.0 | 0.00 | 0.78 | 0.03 | 57 | 1016.8 |
| 20260503180046 | 77 | 27 | 5.0 | 10.0 | 0.00 | 0.78 | 0.03 | 60 | 1017.0 |
| 20260503174535 | 77 | 42 | 6.0 | 11.0 | 0.00 | 0.78 | 0.03 | 59 | 1017.1 |
| 20260503173034 | 76 | 45 | 6.0 | 13.0 | 0.00 | 0.78 | 0.03 | 61 | 1017.1 |
| 20260503171531 | 76 | 30 | 3.0 | 12.0 | 0.00 | 0.78 | 0.03 | 62 | 1017.4 |
| 20260503081515 | 65 | 48 | 5.0 | 10.0 | 0.02 | 0.78 | 0.03 | 91 | 1014.4 |